Location: Godiavel Galaoual
(15.2485°N, 12.6604°W)
Time: 07:29:44
(UTC+00:00)

METEOR M2 - Pass Details

Date: 05 August 2021
Orbit: 818 x 827 km, 98.5° (Epoch: 27 September)

Event Time Altitude Azimuth Distance (km) Brightness Sun altitude
Rises 20:58:32 0° 202° (SSW) 3,354 ? -23.1°
Reaches altitude 10° 21:01:43 10° 222° (SW) 2,422 ? -23.8°
Maximum altitude 21:05:05 17° 261° (W) 1,979 ? -24.6°
Drops below altitude 10° 21:08:27 10° 301° (WNW) 2,423 ? -25.3°
Sets 21:11:39 0° 321° (NW) 3,356 ? -26.0°
